This demonstration page uses our WeatherBlox Daily Observations layout. Learn more.

Left ArrowRight Arrow

39.51506, -84.39828

Hourly Observations for January 16, 2021

Temp ( °F °C ) Dew Point ( °F °C ) Humidity (%) Winds ( mph kmh ) Pressure ( in mb ) Visibility ( mi km ) Precip ( " mm )
12:15 am 00:15 Cloudy 30 -1.3 29 -1.9 96 96 N N/A 29.67 1005 10 16 N/A
12:35 am 00:35 Cloudy 30 -1.1 29 -1.6 96 96 N N/A 29.67 1005 10 16 N/A
12:55 am 00:55 Cloudy 31 -0.8 29 -1.4 96 96 N N/A 29.67 1005 10 16 N/A
1:15 am 01:15 Cloudy with Light Rain 31 -0.6 29 -1.4 94 94 N N/A 29.67 1005 10 16 N/A
1:35 am 01:35 Cloudy with Light Snow 31 -0.7 30 -1.2 96 96 N N/A 29.67 1005 4 6 N/A
1:55 am 01:55 Mostly Cloudy with Light Snow 31 -0.7 30 -0.9 99 99 N N/A 29.67 1005 2 3 N/A
2:15 am 02:15 Cloudy with Light Snow 32 -0.1 32 -0.2 99 99 SW 6 9 29.66 1005 4 6 N/A
2:35 am 02:35 Cloudy with Light Snow 32 -0.2 31 -0.3 99 99 SW 5 7 29.67 1005 4 6 N/A
2:55 am 02:55 Cloudy with Light Snow 31 -0.3 31 -0.4 99 99 SSW 5 7 29.67 1005 5 8 N/A
3:15 am 03:15 Cloudy 31 -0.5 31 -0.7 99 99 SSW 3 6 29.67 1005 10 16 N/A
3:35 am 03:35 Cloudy 31 -0.3 31 -0.7 97 97 WSW 3 6 29.67 1005 10 16 N/A
3:55 am 03:55 Cloudy with Light Snow 31 -0.4 31 -0.7 98 98 N N/A 29.67 1005 10 16 N/A
4:15 am 04:15 Cloudy with Light Snow 31 -0.4 30 -0.9 96 96 SSW 5 7 29.67 1005 10 16 N/A
4:35 am 04:35 Cloudy 31 -0.5 30 -1.1 96 96 SW 6 9 29.67 1005 10 16 N/A
4:55 am 04:55 Cloudy 31 -0.6 30 -1 97 97 SW 5 7 29.67 1005 10 16 N/A
5:15 am 05:15 Cloudy with Light Snow 31 -0.6 30 -1.3 95 95 SW 5 7 29.66 1004 7 11 N/A
5:35 am 05:35 Cloudy with Light Snow 31 -0.8 29 -1.5 95 95 SW 5 7 29.66 1004 10 16 N/A
5:55 am 05:55 Cloudy with Light Snow 30 -0.9 29 -1.5 96 96 S 5 7 29.66 1004 10 16 N/A
6:15 am 06:15 Cloudy 29 -1.4 28 -2.1 95 95 SSW 5 7 29.66 1004 10 16 N/A
6:35 am 06:35 Mostly Cloudy 29 -1.8 28 -2.3 96 96 SW 5 7 29.66 1004 10 16 N/A
6:55 am 06:55 Mostly Cloudy 29 -1.8 28 -2.3 96 96 S 5 7 29.67 1005 10 16 N/A
7:15 am 07:15 Cloudy 27 -2.9 26 -3.1 99 99 WSW 5 7 29.67 1005 7 11 N/A
7:35 am 07:35 Cloudy 29 -1.6 29 -1.7 99 99 SW 5 7 29.67 1005 10 16 N/A
7:55 am 07:55 Cloudy 30 -1 30 -1.3 98 98 SW 7 11 29.68 1005 10 16 N/A
8:15 am 08:15 Cloudy 30 -0.9 29 -1.4 96 96 SW 7 11 29.68 1005 10 16 N/A
8:35 am 08:35 Cloudy 31 -0.8 30 -1.3 96 96 SW 8 13 29.69 1005 10 16 N/A
8:55 am 08:55 Cloudy 31 -0.7 30 -1.2 96 96 SSW 10 17 29.69 1005 10 16 N/A
9:15 am 09:15 Cloudy 31 -0.6 30 -1.2 96 96 SW 7 11 29.70 1006 10 16 N/A
9:35 am 09:35 Cloudy 31 -0.4 29 -1.6 92 92 SW 9 15 29.70 1006 10 16 N/A
9:55 am 09:55 Cloudy with Light Snow 32 -0.2 29 -1.6 90 90 SW 8 13 29.71 1006 10 16 N/A
10:15 am 10:15 Cloudy 32 undefined 29 -1.4 90 90 WSW 8 13 29.70 1006 10 16 N/A
10:35 am 10:35 Cloudy 32 0.2 30 -1.3 90 90 WSW 7 11 29.71 1006 10 16 N/A
10:55 am 10:55 Sunny 33 0.8 29 -1.5 85 85 WSW 6 9 29.70 1006 10 16 N/A
11:15 am 11:15 Cloudy 34 1.2 28 -2.5 77 77 WSW 12 19 29.70 1006 10 16 N/A
11:35 am 11:35 Cloudy 34 1.1 28 -2.5 77 77 WSW 12 19 29.70 1006 10 16 N/A
11:55 am 11:55 Cloudy 34 1.1 28 -2.5 77 77 W 16 26 29.70 1006 10 16 N/A
12:15 pm 12:15 Cloudy 35 1.4 28 -2.4 76 76 WSW 16 26 29.69 1005 10 16 N/A
12:35 pm 12:35 Cloudy 35 1.5 26 -3.6 69 69 W 12 19 29.68 1005 10 16 N/A
12:55 pm 12:55 Cloudy 35 1.7 28 -2.5 74 74 WSW 9 15 29.69 1005 10 16 N/A
1:15 pm 13:15 Cloudy 35 1.4 25 -3.9 68 68 W 12 19 29.68 1005 10 16 N/A
1:35 pm 13:35 Cloudy 35 1.9 26 -3.5 68 68 WSW 10 17 29.68 1005 10 16 N/A
1:55 pm 13:55 Cloudy 36 2.2 25 -3.8 65 65 WSW 12 19 29.68 1005 10 16 N/A
2:15 pm 14:15 Cloudy 36 2.4 26 -3.6 65 65 SW 14 22 29.69 1005 10 16 N/A
2:35 pm 14:35 Cloudy 36 2.2 25 -3.7 65 65 WSW 17 28 29.69 1005 10 16 N/A
2:55 pm 14:55 Cloudy 36 2 25 -4 65 65 W 17 28 29.70 1006 10 16 N/A
3:15 pm 15:15 Cloudy 36 2 25 -3.7 66 66 WSW 10 17 29.70 1006 10 16 N/A
3:35 pm 15:35 Cloudy with Light Rain 35 1.9 26 -3.4 68 68 WSW 16 26 29.71 1006 10 16 N/A
3:55 pm 15:55 Cloudy with Light Rain 35 1.8 28 -2.4 74 74 WSW 16 26 29.72 1006 5 8 N/A
4:15 pm 16:15 Cloudy with Light Snow 34 1 29 -1.4 84 84 WSW 13 20 29.72 1007 3 5 N/A
4:35 pm 16:35 Cloudy with Light Snow 33 0.5 31 -0.7 92 92 SW 12 19 29.73 1007 2 3 N/A
4:55 pm 16:55 Cloudy with Light Snow 33 0.3 32 -0.2 96 96 SSW 9 15 29.73 1007 2 3 N/A
5:15 pm 17:15 Cloudy with Light Snow 33 0.3 32 undefined 98 98 SSW 9 15 29.74 1007 3 4 N/A
5:35 pm 17:35 Cloudy with Light Snow 33 0.3 32 undefined 98 98 SW 13 20 29.74 1007 4 6 N/A
5:55 pm 17:55 Cloudy with Light Snow 33 0.3 32 undefined 98 98 SW 12 19 29.74 1007 3 4 N/A
6:15 pm 18:15 Cloudy with Light Snow 32 0.2 32 undefined 99 99 SW 10 17 29.75 1008 3 4 N/A
6:35 pm 18:35 Cloudy with Light Snow 32 0.2 32 0.1 99 99 SSW 12 19 29.75 1008 3 5 N/A
6:55 pm 18:55 Cloudy with Light Snow 32 0.2 32 0.1 99 99 SSW 12 19 29.75 1008 3 5 N/A
7:15 pm 19:15 Cloudy with Light Snow 32 0.2 32 0.2 100 100 SW 10 17 29.76 1008 4 6 N/A
7:35 pm 19:35 Cloudy with Light Snow 32 0.2 32 0.2 100 100 SW 9 15 29.76 1008 3 5 N/A
7:55 pm 19:55 Cloudy with Light Snow 32 undefined N/A N/A SW 9 15 29.76 1008 3 5 N/A
8:15 pm 20:15 Cloudy with Light Snow 32 undefined N/A N/A SW 10 17 29.76 1008 4 6 N/A
8:35 pm 20:35 Cloudy with Light Rain 34 1 N/A N/A SW 10 17 29.76 1008 7 11 N/A
8:55 pm 20:55 Cloudy with Light Rain 33 0.8 33 0.6 99 99 SW 9 15 29.76 1008 10 16 N/A
9:15 pm 21:15 Cloudy 34 1.1 33 0.4 95 95 WSW 12 19 29.76 1008 10 16 N/A
9:35 pm 21:35 Cloudy 34 1.3 33 0.3 93 93 WSW 12 19 29.76 1008 10 16 N/A
9:55 pm 21:55 Cloudy 34 1.3 33 0.3 93 93 WSW 13 20 29.76 1008 10 16 N/A
10:15 pm 22:15 Cloudy 35 1.4 33 0.4 93 93 WSW 14 22 29.77 1008 10 16 N/A
10:35 pm 22:35 Cloudy 35 1.4 33 0.4 93 93 WSW 14 22 29.77 1008 10 16 N/A
10:55 pm 22:55 Cloudy 34 1.3 33 0.5 94 94 WSW 12 19 29.78 1009 10 16 N/A
11:15 pm 23:15 Cloudy 35 1.4 33 0.5 94 94 WSW 10 17 29.78 1008 10 16 N/A
11:35 pm 23:35 Cloudy 35 1.4 33 0.6 94 94 WSW 12 19 29.78 1008 10 16 N/A
11:55 pm 23:55 Cloudy 35 1.4 33 0.6 94 94 WSW 12 19 29.78 1008 10 16 N/A

Powered by AerisWeather